Weather in Tbilisi

Georgia     41°41′49″N   44°47′57″E
temp.,
°C
wind,
m/s
gust,
m/s
humid.,
%
clouds,
%
prec.,
mm/h
press.,
hPa
HPBL,
m
6 august, fri
fri601:00+25nnw2228100 0.0 101255
04:00+24nw22322 0.0 101246
07:00+23nw12320 0.0 101363
10:00+29se36230 0.0 10121193
13:00+33se67180 0.0 10102064
16:00+35se67150 0.0 10072376
19:00+33se57190 0.0 10071954
22:00+28nne112654 0.0 100815
7 august, sat
sat701:00+26nnw112844 0.0 100929
04:00+24nw113294 0.0 100919
07:00+24nw11325 0.0 100951
10:00+29se36235 0.0 10091155
13:00+34se57189 0.0 10071902
16:00+35se67160 0.0 10052183
19:00+33sse4719100 0.0 10051962
22:00+26nnw3349100 0.3 1010212
8 august, sun
sun801:00+23nw236018 0.3 1012253
04:00+22n22601 0.3 1010177
07:00+22nw235799 0.0 1010152
10:00+29n123479 0.0 1010556
13:00+35se222191 0.0 10081404
16:00+36sse651946 0.0 10072714
19:00+29nw510354 0.0 1010788
22:00+25nnw585663 0.0 1011373
9 august, mon
mon901:00+22nnw58685 0.1 1013372
04:00+21nnw467197 0.2 1014227
07:00+21nw46734 0.1 1014219
10:00+27n22465 0.3 1013464
13:00+34ese352511 0.0 10111879
16:00+36ese79205 0.0 10092529
19:00+21nw6117899 0.6 1016493
22:00+20nw588298 2.9 1015291
10 august, tue
tue1001:00+20nw478072 0.4 1015204
04:00+19nw36888 1.8 1014190
07:00+19nw35831 0.3 1014164
10:00+25nnw23536 0.7 1014410
13:00+31ene24305 0.3 1012934
16:00+33se582189 2.0 10102325
19:00+27wnw2447100 1.6 1012133
22:00+21nw4676100 4.1 1015254